Printer-friendly version

IAU Minor Planet Center

Minor Planet Center

MPEC 2007-S35 : 2007 SV1

The following Minor Planet Electronic Circular may be linked-to from your own Web pages, but must not otherwise be redistributed electronically.


Read MPEC 2007-S34 Read MPEC 2007-S36


M.P.E.C. 2007-S35                                Issued 2007 Sept. 20, 20:33 UT

     The Minor Planet Electronic Circulars contain information on unusual
         minor planets and routine data on comets.  They are published
   on behalf of Commission 20 of the International Astronomical Union by the
          Minor Planet Center, Smithsonian Astrophysical Observatory,
                          Cambridge, MA 02138, U.S.A.

             Prepared using the Tamkin Foundation Computer Network

                              MPC@CFA.HARVARD.EDU
          URL http://www.cfa.harvard.edu/iau/mpc.html  ISSN 1523-6714

                                   2007 SV1

Observations:
     K07S01V* C2007 09 20.26196 00 21 48.81 +20 16 35.4          18.9 V ES035703
     K07S01V  C2007 09 20.26905 00 21 38.55 +20 16 18.6          18.6 V ES035703
     K07S01V  C2007 09 20.27615 00 21 28.22 +20 16 02.3          18.6 V ES035703
     K07S01V  C2007 09 20.28324 00 21 17.92 +20 15 45.9          18.8 V ES035703
     K07S01V  C2007 09 20.38433 00 18 50.97 +20 11 30.5          19.1 V ES035703
     K07S01V  C2007 09 20.38480 00 18 50.32 +20 11 29.4          18.6 V ES035703
     K07S01V  C2007 09 20.38527 00 18 49.68 +20 11 28.3          18.7 V ES035703
     K07S01V  C2007 09 20.48388 00 16 27.88 +20 06 48.0          18.7 V ES035703
     K07S01V  C2007 09 20.48515 00 16 26.05 +20 06 44.7          18.8 V ES035703
     K07S01V  C2007 09 20.48645 00 16 24.21 +20 06 39.9          18.7 V ES035703
     K07S01V  C2007 09 20.48776 00 16 22.37 +20 06 36.7          18.7 V ES035703
     K07S01V  C2007 09 20.79829 00 09 33.46 +19 51 26.3                 ES035024
     K07S01V  C2007 09 20.80567 00 09 23.04 +19 51 07.1                 ES035024
     K07S01V  C2007 09 20.81529 00 09 09.47 +19 50 41.6                 ES035024
     K07S01V  C2007 09 20.82605 00 08 54.31 +19 50 26.6          18.5 R ES035473
     K07S01V  C2007 09 20.82882 00 08 50.37 +19 50 18.8          18.6 R ES035473
     K07S01V  C2007 09 20.83093 00 08 47.36 +19 50 12.8          18.5 R ES035473

Observer details:
024 Heidelberg-Konigstuhl.  Observer F. Hormuth.  0.70-m reflector + CCD.
473 Remanzacco.  Observers L. Donato, M. Gonano, V. Gonano, E. Guido,
    V. Santini, G. Sostero.  0.45-m f/4.4 Newtonian reflector + CCD.
703 Catalina Sky Survey.  Observer A. R. Gibbs.  Measurers E. C. Beshore,
    A. Boattini, G. J. Garradd, A. R. Gibbs, A. D. Grauer, R. E. Hill,
    R. A. Kowalski, S. M. Larson, R. H. McNaught.  0.68-m Schmidt + CCD.

Orbital elements:
2007 SV1                                                 Earth MOID = 0.0116 AU
Epoch 2007 Oct. 27.0 TT = JDT 2454400.5                 MPC
M 234.06142              (2000.0)            P               Q
n   1.49650258     Peri.  189.54302     -0.99924685     -0.03598577
a   0.7569800      Node   348.36513     +0.03862329     -0.88633424
e   0.3780079      Incl.    4.12796     +0.00373778     -0.46164558
P   0.66           H   24.5           G   0.15           U   9
Residuals in seconds of arc
070920 703  0.3+  0.1-    070920 703  0.6+  0.6+    070920 024  0.4-  0.1+
070920 703  0.3+  0.5-    070920 703  0.2+  0.1-    070920 024  0.2-  0.2-
070920 703  0.3-  0.3-    070920 703  0.2-  0.4+    070920 473  0.2+  0.4+
070920 703  0.5-  0.0     070920 703  0.1-  0.5-    070920 473  0.3+  0.1-
070920 703  0.5-  0.2+    070920 703  0.1+  0.1+    070920 473  0.2+  0.5-
070920 703  0.0   0.4+    070920 024  0.1-  0.1+

Ephemeris:
2007 SV1                 a,e,i = 0.76, 0.38, 4                   q = 0.4708
Date    TT    R. A. (2000) Decl.     Delta      r     Elong.  Phase     V
2007 09 17    01 31.44   +21 23.8    0.0458   1.042   143.1    35.4    19.3
2007 09 19    00 50.08   +20 58.4    0.0429   1.043   152.1    26.8    19.0
2007 09 21    00 04.77   +19 43.8    0.0415   1.043   159.0    20.2    18.7
2007 09 23    23 19.07   +17 39.9    0.0417   1.043   159.7    19.5    18.7
2007 09 25    22 36.69   +15 03.0    0.0435   1.042   153.8    25.2    18.9
2007 09 27    21 59.99   +12 16.4    0.0466   1.041   145.4    33.1    19.3
2007 09 29    21 29.58   +09 38.6    0.0508   1.040   137.1    41.0    19.7
2007 10 01    21 04.96   +07 18.9    0.0559   1.038   129.5    48.1    20.1
2007 10 03    20 45.17   +05 19.5    0.0616   1.036   122.9    54.2    20.5
2007 10 05    20 29.26   +03 39.1    0.0677   1.033   117.1    59.5    20.9
2007 10 07    20 16.38   +02 14.9    0.0741   1.030   112.0    64.2    21.2
2007 10 09    20 05.87   +01 04.3    0.0807   1.026   107.5    68.2    21.5
2007 10 11    19 57.20   +00 04.7    0.0874   1.022   103.4    71.9    21.8
2007 10 13    19 49.99   -00 46.1    0.0942   1.018    99.6    75.1    22.0
2007 10 15    19 43.90   -01 29.6    0.101    1.013    96.1    78.2    22.3
2007 10 17    19 38.69   -02 07.3    0.108    1.008    92.9    81.0    22.5

Sonia Keys                   (C) Copyright 2007 MPC           M.P.E.C. 2007-S35

Read MPEC 2007-S34 Read MPEC 2007-S36


Our Web policy. Index to the CBAT/MPC/ICQ pages.


Valid HTML 4.01!